Theta_e
333 339 340 340 342 343 344 344 347 348 353 352 355 358 354 356 360 352 354 361 356 361 358 357 364 366 365 368 369 368 369 364 363
329 334 338 340 343 344 345 346 347 350 353 354 356 354 358 353 359 357 351 358 362 361 362 359 363 365 367 367 367 366 368 363 363
328 334 334 338 343 344 347 347 350 351 354 354 357 356 357 355 352 357 358 351 358 358 366 365 364 365 365 366 368 367 368 364 364
327 329 335 336 337 346 348 349 351 350 353 355 357 358 356 355 354 354 354 357 350 362 360 371 368 369 367 364 364 368 368 364 364
333 336 336 335 331 335 346 348 349 350 351 355 357 359 357 356 357 354 353 350 361 360 367 365 373 367 370 365 365 365 365 363 358
328 336 328 329 334 338 346 347 349 351 351 351 357 359 357 356 355 356 355 353 354 362 361 365 363 368 364 365 362 363 365 364 362
325 329 331 333 339 342 348 348 350 350 351 353 353 356 357 356 355 355 354 358 355 360 363 362 363 363 365 365 363 362 364 365 363
325 327 328 332 335 340 349 350 351 352 353 352 353 354 354 356 359 357 357 356 359 356 360 362 364 363 365 365 363 360 361 362 364
319 321 328 332 330 349 347 352 352 353 353 353 354 353 353 356 358 358 358 356 358 360 359 362 363 364 364 364 362 346 341 355 359
315 320 321 333 337 339 344 350 355 353 354 355 354 354 355 355 358 359 357 360 357 359 359 361 362 363 365 364 364 339 336 341 358
315 320 322 342 334 341 346 343 348 357 357 356 356 355 357 356 358 358 359 358 359 358 360 360 361 363 365 365 365 339 330 336 354
315 319 325 341 342 344 349 349 350 356 358 356 356 356 357 357 357 358 358 357 358 359 360 361 361 363 365 364 365 334 331 333 351
318 337 340 340 342 344 345 349 350 350 353 358 354 355 357 361 357 360 358 359 359 360 362 361 362 362 365 356 365 336 329 333 355
331 334 337 341 343 345 349 351 352 350 351 352 360 358 361 362 361 360 362 363 363 362 363 363 363 362 364 366 363 362 325 323 357
329 331 333 337 340 343 353 356 352 350 352 357 361 363 360 365 365 362 364 364 365 365 364 363 362 363 363 365 368 341 327 321 327
326 324 327 331 337 345 359 357 360 352 356 360 367 365 361 364 365 366 364 365 364 363 364 362 361 361 360 362 365 366 330 321 320
318 320 320 323 330 336 336 340 347 361 360 363 363 362 363 363 365 363 364 366 365 364 363 362 361 359 360 360 362 363 366 344 333
316 317 319 321 324 326 326 332 340 346 349 362 358 363 362 362 363 361 364 363 364 364 365 358 361 360 359 359 357 357 345 349 354
315 317 319 318 318 319 320 324 331 338 343 347 365 361 361 360 361 362 363 360 352 308 314 306 311 317 342 345 318 310 309 309 320
316 317 317 316 316 317 318 319 324 328 334 342 353 362 361 360 355 360 360 359 350 340 321 302 300 301 308 313 314 305 303 301 309
Wind_Speed
9 25 25 25 27 25 26 25 24 24 24 22 21 18 18 13 12 9 8 6 5 3 4 7 11 9 9 7 6 5 5 4 5
23 10 16 25 24 23 24 23 24 24 24 22 22 22 17 16 12 11 10 8 5 5 5 2 13 11 8 8 8 7 7 5 5
14 12 19 9 22 22 21 22 21 21 22 23 22 22 18 16 17 14 9 10 7 7 6 6 9 11 10 7 7 8 7 6 6
24 31 17 9 15 18 21 21 21 22 21 23 21 20 19 18 17 16 14 10 12 9 9 6 6 7 8 9 8 6 6 6 5
23 22 22 20 13 28 25 24 23 23 22 21 22 21 19 19 18 18 17 15 12 12 10 10 6 7 6 6 8 7 8 9 7
5 24 21 25 27 34 26 25 23 22 23 23 21 19 19 19 19 19 19 18 16 14 13 10 11 8 9 8 9 8 9 9 9
9 8 31 29 24 7 20 23 22 21 22 21 20 22 20 20 21 20 19 17 18 15 14 14 13 12 11 11 11 10 10 11 11
20 13 11 11 11 30 32 23 21 20 19 21 21 20 22 22 20 19 18 18 17 18 16 14 14 13 13 13 12 11 11 10 11
23 22 20 7 8 12 20 23 22 22 20 21 20 19 22 20 19 19 18 18 16 17 17 16 15 15 15 14 12 15 16 14 11
21 25 30 8 7 2 3 12 21 21 22 19 20 17 17 18 18 19 19 17 18 17 18 16 16 16 15 15 15 15 17 18 12
21 20 28 15 5 8 12 9 11 17 18 18 18 18 17 18 18 20 18 18 18 18 16 17 16 16 16 15 14 15 14 17 14
19 19 23 13 11 13 12 14 9 9 18 19 17 18 19 19 20 19 20 20 19 17 16 16 16 15 16 16 14 17 17 12 10
12 17 13 13 12 12 13 13 13 12 12 18 21 20 21 18 19 19 21 20 19 16 16 17 14 16 16 17 16 16 19 16 11
9 4 20 15 14 11 11 13 15 15 12 15 20 19 16 17 18 19 17 16 15 16 16 15 15 15 14 15 16 16 19 20 14
10 7 12 13 13 12 13 15 15 17 17 12 12 16 17 15 16 15 14 18 15 15 15 16 14 14 12 12 13 16 15 20 21
5 6 9 10 12 13 9 14 11 18 18 13 9 14 18 16 15 15 14 15 15 13 14 13 13 12 12 11 11 12 18 21 21
3 5 7 8 9 9 11 13 16 10 15 14 10 14 16 15 15 15 15 11 13 13 13 13 12 13 12 12 11 11 12 11 11
6 6 8 8 8 9 12 13 12 13 14 8 12 14 14 15 13 14 14 13 12 12 13 12 13 11 12 11 12 13 13 14 11
6 7 8 9 11 11 12 12 12 13 14 15 13 14 13 13 12 13 12 12 7 13 9 3 9 7 6 4 5 4 4 14 20
6 7 8 10 11 10 11 12 13 16 15 15 12 11 12 11 12 13 14 13 11 10 5 9 10 6 11 10 9 11 9 7 13
Wind_Direction
259 183 180 180 180 182 185 186 181 179 176 181 182 188 199 202 196 208 214 241 199 225 205 183 173 170 170 180 186 194 160 191 225
168 257 251 179 179 187 184 188 185 182 178 182 184 191 187 198 206 206 204 217 212 198 246 286 155 169 173 182 175 206 171 222 206
160 186 268 200 174 186 188 191 185 184 179 185 186 188 190 191 201 199 208 204 224 207 227 226 167 174 179 181 195 189 184 217 192
164 191 179 321 304 196 193 189 188 186 185 181 187 190 193 194 192 201 205 208 200 201 219 242 174 176 174 180 197 197 196 224 226
186 159 153 179 303 280 182 186 190 186 187 187 190 190 190 196 196 197 199 210 201 208 196 200 201 183 184 193 193 201 203 210 241
246 154 154 173 191 234 185 182 185 186 187 193 185 190 195 193 199 198 201 201 212 196 202 204 204 190 195 196 204 204 206 202 217
314 222 174 192 195 175 180 179 179 185 187 188 191 186 193 199 199 201 202 198 201 208 196 200 206 209 199 203 206 212 215 201 210
339 304 246 257 224 164 212 175 174 179 187 189 188 189 193 199 200 203 199 203 198 203 206 203 203 207 210 204 207 211 213 214 210
333 318 307 336 358 190 180 172 173 177 184 186 189 192 193 194 197 196 203 204 202 199 205 203 203 205 210 206 209 208 203 204 217
321 325 311 276 324 359 22 222 174 177 184 182 186 191 191 193 189 198 202 200 202 203 202 204 205 206 208 212 212 208 204 202 211
303 315 307 344 289 324 131 183 309 182 183 182 186 191 188 188 190 194 197 202 204 206 203 206 206 207 208 211 214 204 203 203 209
280 281 286 315 329 330 338 336 334 204 174 183 194 191 197 190 192 190 192 199 203 202 203 206 211 209 208 210 215 199 202 183 208
280 346 302 323 319 320 319 316 310 299 217 179 193 205 199 191 191 190 194 197 199 202 204 208 208 213 212 210 212 198 199 190 215
319 168 288 314 311 299 292 291 292 286 276 215 198 201 201 196 190 197 191 194 197 199 206 209 211 217 217 215 212 212 195 195 211
283 302 295 299 297 292 283 263 239 255 260 255 211 188 198 194 195 192 190 190 195 199 203 209 212 212 217 217 217 211 198 194 205
301 327 307 309 306 294 300 343 285 221 243 240 234 188 189 198 191 192 194 190 194 197 202 208 211 212 211 218 209 215 202 193 203
358 338 328 334 327 340 349 347 337 287 225 235 219 198 187 188 188 190 196 190 193 198 197 204 209 214 212 212 220 213 203 201 203
20 0 359 358 13 7 4 352 343 348 334 263 211 193 183 186 189 186 191 205 194 197 204 207 203 210 212 205 213 220 217 181 188
19 11 4 14 20 13 358 347 343 354 348 332 200 182 181 183 187 183 186 187 157 33 67 79 122 124 205 106 94 52 277 202 183
10 19 25 27 8 4 359 344 353 351 349 348 322 188 184 192 193 186 187 183 165 147 67 53 44 47 102 94 137 105 80 57 158